Zurück zum Katalog

STARLINK-37161

AktivKommunikationVLEO
NORAD 68565·PAYLOAD·🇺🇸 United States

Gestartet Apr 2, 2026 von Cape Canaveral Space Force Station

Loading…

Nächste Überflüge (nächste 24 Stunden)

TLE

AktuellSource: CelesTrak SupGP

Epoche: Sep 14, 2026, 15:19 UTC

1 68565C 26070Z   26257.63868056  .00039451  00000+0  11653-2 0  2575
2 68565  53.1588 200.7985 0001270  92.2386 194.3451 15.34378972    10

Verfolge STARLINK-37161 in Echtzeit mit AllMySat

Download on the App Store